TimeEST,TemperatureF,Dew PointF,Humidity,Sea Level PressureIn,VisibilityMPH,Wind Direction,Wind SpeedMPH,Gust SpeedMPH,PrecipitationIn,Events,Conditions,WindDirDegrees,DateUTC
12:30 AM,42.8,39.2,87,30.15,6.0,ESE,6.9,-,0.06,Rain,Light Rain,120,2012-12-10 05:30:00
12:40 AM,42.8,39.2,87,30.14,7.0,ESE,13.8,18.4,0.06,Rain,Light Rain,110,2012-12-10 05:40:00
12:48 AM,42.8,39.2,87,30.13,9.0,ESE,12.7,-,0.07,Rain,Light Rain,110,2012-12-10 05:48:00
12:54 AM,43.0,41.0,93,30.13,7.0,ESE,12.7,-,0.07,Rain,Light Rain,110,2012-12-10 05:54:00
1:54 AM,43.0,39.9,89,30.09,4.0,ESE,12.7,-,0.13,Rain,Rain,110,2012-12-10 06:54:00
1:57 AM,42.8,41.0,93,30.10,4.0,ESE,11.5,-,0.01,Rain,Rain,110,2012-12-10 06:57:00
2:08 AM,44.6,41.0,87,30.09,5.0,East,16.1,-,0.03,Rain,Rain,100,2012-12-10 07:08:00
2:25 AM,44.6,41.0,87,30.07,5.0,East,16.1,-,0.04,Rain,Light Rain,100,2012-12-10 07:25:00
2:36 AM,44.6,42.8,93,30.06,4.0,East,15.0,-,0.06,Rain,Rain,100,2012-12-10 07:36:00
2:54 AM,45.0,42.1,90,30.04,4.0,East,13.8,-,0.10,Rain,Light Rain,100,2012-12-10 07:54:00
3:10 AM,44.6,42.8,93,30.02,5.0,East,15.0,-,0.01,Rain,Light Rain,100,2012-12-10 08:10:00
3:25 AM,44.6,42.8,93,30.01,4.0,ESE,18.4,-,0.02,Rain,Light Rain,110,2012-12-10 08:25:00
3:42 AM,44.6,42.8,93,29.99,4.0,ESE,19.6,-,0.04,Rain,Light Rain,110,2012-12-10 08:42:00
3:50 AM,44.6,42.8,93,29.99,5.0,ESE,15.0,-,0.05,Rain,Light Rain,110,2012-12-10 08:50:00
3:54 AM,45.0,43.0,93,29.99,6.0,ESE,16.1,-,0.05,Rain,Light Rain,110,2012-12-10 08:54:00
4:08 AM,44.6,42.8,93,29.98,5.0,ESE,12.7,24.2,0.00,Rain,Light Rain,120,2012-12-10 09:08:00
4:16 AM,44.6,42.8,93,29.96,4.0,ESE,16.1,-,0.01,Rain,Light Rain,110,2012-12-10 09:16:00
4:54 AM,45.0,44.1,97,29.93,6.0,ESE,12.7,-,0.02,,Overcast,110,2012-12-10 09:54:00
5:54 AM,45.0,45.0,100,29.88,4.0,East,3.5,-,0.02,Rain,Light Rain,90,2012-12-10 10:54:00
6:54 AM,46.0,46.0,100,29.83,8.0,Calm,Calm,-,0.03,Rain,Light Rain,0,2012-12-10 11:54:00
7:11 AM,46.4,44.6,93,29.83,1.8,West,4.6,-,0.04,Rain,Rain,260,2012-12-10 12:11:00
7:31 AM,46.4,44.6,93,29.82,10.0,WSW,4.6,-,0.09,,Overcast,240,2012-12-10 12:31:00
7:54 AM,46.9,46.0,97,29.82,8.0,West,4.6,-,0.09,Rain,Light Rain,260,2012-12-10 12:54:00
8:54 AM,48.0,46.9,96,29.81,4.0,Calm,Calm,-,0.00,,Overcast,0,2012-12-10 13:54:00
9:54 AM,48.0,46.9,96,29.79,7.0,Variable,3.5,-,N/A,,Overcast,0,2012-12-10 14:54:00
10:54 AM,50.0,48.9,96,29.75,5.0,South,3.5,-,N/A,,Overcast,190,2012-12-10 15:54:00
11:05 AM,50.0,48.2,94,29.75,5.0,Calm,Calm,-,N/A,,Overcast,0,2012-12-10 16:05:00
11:19 AM,50.0,48.2,94,29.74,4.0,SSE,3.5,-,N/A,,Overcast,150,2012-12-10 16:19:00
11:50 AM,50.0,48.2,94,29.71,4.0,Calm,Calm,-,N/A,,Overcast,0,2012-12-10 16:50:00
11:54 AM,50.0,48.9,96,29.71,4.0,SE,4.6,-,N/A,,Overcast,140,2012-12-10 16:54:00
12:54 PM,57.9,57.0,97,29.66,8.0,SSW,11.5,-,N/A,,Overcast,200,2012-12-10 17:54:00
1:16 PM,57.2,57.2,100,29.65,10.0,SSW,12.7,-,N/A,,Overcast,200,2012-12-10 18:16:00
1:54 PM,59.0,57.0,93,29.64,8.0,SW,11.5,-,0.02,Rain,Light Rain,220,2012-12-10 18:54:00
2:07 PM,60.8,57.2,88,29.63,8.0,SSW,11.5,-,0.00,Rain,Light Rain,210,2012-12-10 19:07:00
2:35 PM,59.0,57.2,94,29.62,10.0,SSW,9.2,-,0.01,Rain,Light Rain,210,2012-12-10 19:35:00
2:54 PM,59.0,57.0,93,29.62,10.0,SSW,9.2,-,0.01,,Mostly Cloudy,200,2012-12-10 19:54:00
3:54 PM,57.9,57.0,97,29.60,6.0,South,8.1,-,0.00,,Light Drizzle,190,2012-12-10 20:54:00
4:02 PM,57.2,57.2,100,29.60,6.0,South,9.2,-,0.00,,Light Drizzle,190,2012-12-10 21:02:00
4:54 PM,57.9,57.0,97,29.58,10.0,SSW,8.1,-,0.00,,Overcast,200,2012-12-10 21:54:00
5:31 PM,57.2,55.4,94,29.56,10.0,SSW,8.1,-,0.00,,Overcast,200,2012-12-10 22:31:00
5:49 PM,57.2,55.4,94,29.56,4.0,SSW,9.2,-,0.02,Rain,Light Rain,200,2012-12-10 22:49:00
5:54 PM,57.0,55.9,96,29.56,4.0,South,8.1,-,0.03,Rain,Light Rain,190,2012-12-10 22:54:00
6:14 PM,55.4,55.4,100,29.55,10.0,South,8.1,-,0.00,,Overcast,190,2012-12-10 23:14:00
6:54 PM,55.9,55.9,100,29.53,9.0,SSW,5.8,-,0.00,,Overcast,200,2012-12-10 23:54:00
7:15 PM,55.4,55.4,100,29.51,7.0,South,6.9,-,N/A,,Overcast,180,2012-12-11 00:15:00
7:40 PM,55.4,55.4,100,29.51,4.0,South,5.8,-,N/A,,Overcast,180,2012-12-11 00:40:00
7:54 PM,55.0,55.0,100,29.51,6.0,South,5.8,-,N/A,,Overcast,180,2012-12-11 00:54:00
8:54 PM,57.0,55.9,96,29.50,10.0,WSW,10.4,-,N/A,,Overcast,240,2012-12-11 01:54:00
9:54 PM,57.0,55.0,93,29.50,8.0,WSW,9.2,-,N/A,,Overcast,240,2012-12-11 02:54:00
10:54 PM,55.0,54.0,96,29.51,10.0,SW,8.1,-,N/A,,Mostly Cloudy,220,2012-12-11 03:54:00
11:54 PM,55.0,54.0,96,29.52,10.0,SW,8.1,-,N/A,,Overcast,220,2012-12-11 04:54:00